Location: Godiavel Galaoual
(15.2485°N, 12.6604°W)
Time: 14:19:05
(UTC+00:00)

Envisat - Pass Details

Date: 05 December 2021
Orbit: 764 x 766 km, 98.2° (Epoch: 27 January)

Event Time Altitude Azimuth Distance (km) Brightness Sun altitude
Rises 05:03:21 0° 24° (NNE) 3,223 6.3 -28.0°
Reaches altitude 10° 05:05:48 10° 33° (NNE) 2,296 5.6 -27.5°
Maximum altitude 05:10:28 38° 100° (E) 1,159 4.4 -26.4°
Drops below altitude 10° 05:15:08 10° 168° (SSE) 2,292 5.8 -25.3°
Sets 05:17:34 0° 176° (S) 3,217 6.5 -24.8°
